Location: Bagnara
(41.0500°N, 14.7833°E)
Time: 14:03:44
(UTC+00:00)

Meteor 2-15 - Pass Details

Date: 20 June 2021
Orbit: 936 x 956 km, 82.5° (Epoch: 30 July)

Event Time Altitude Azimuth Distance (km) Brightness Sun altitude
Rises 00:29:50 0° 353° (N) 3,639 8.5 -22.4°
Reaches altitude 10° 00:32:22 10° 355° (N) 2,687 7.7 -22.2°
Maximum altitude 00:38:31 76° 81° (E) 979 4.5 -21.8°
Enters shadow 00:41:36 31° 162° (SSE) 1,593 5.2 -21.5°
